Simultaneous Nadir Overpasses (SNOs) Predictions

Prediction of SNOs between METOP-A and TERRA Satellite Orbit:

Table of predicted SNOs for the next 14.0 days since TLE Epoch: 11/2/2013
Index Date (METOP-A) Time (METOP-A) Lat,Lon (METOP-A) SZA (METOP-A ) Date (TERRA) Time (TERRA) Lat,Lon (TERRA) SZA (TERRA ) Distance(km) Time Diff (sec)
1 11/03/2013 05:31:42 -81.31, -35.84 80.46 11/03/2013 05:32:37 -81.31, -35.78 80.43 1.04 55
2 11/03/2013 06:22:22 81.32, 131.75 99.59 11/03/2013 06:22:03 81.31, 131.93 99.60 3.16 19
3 11/06/2013 01:06:02 -81.32, 30.80 79.58 11/06/2013 01:06:53 -81.31, 30.61 79.58 3.36 51
4 11/06/2013 01:56:41 81.32,-161.27 100.51 11/06/2013 01:56:18 81.33,-161.32 100.50 1.06 23
5 11/08/2013 20:40:24 -81.31, 96.96 78.80 11/08/2013 20:41:09 -81.31, 97.15 78.76 3.12 45
6 11/
